| time (UTC) | temp C | wind direction | speed KPH | gust KPH | rain 1hr cm | rain 24hr cm | rain mn cm | humidity % | barometer mb |
| 20260905190038 | 18 | 306 | 4.8 | 12.9 | 0.00 | 0.00 | 0.00 | 64 | 1017.0 |
| 20260905184545 | 17 | 348 | 3.2 | 12.9 | 0.00 | 0.00 | 0.00 | 65 | 1017.2 |
| 20260905183033 | 17 | 305 | 4.8 | 12.9 | 0.00 | 0.00 | 0.00 | 66 | 1017.5 |
| 20260905181544 | 17 | 342 | 3.2 | 14.5 | 0.00 | 0.00 | 0.00 | 67 | 1017.7 |
| 20260905180041 | 17 | 333 | 4.8 | 17.7 | 0.00 | 0.00 | 0.00 | 68 | 1017.8 |
| 20260905174537 | 16 | 338 | 6.4 | 16.1 | 0.00 | 0.00 | 0.00 | 68 | 1017.7 |
| 20260905173040 | 16 | 360 | 4.8 | 14.5 | 0.00 | 0.00 | 0.00 | 70 | 1017.8 |
| 20260905171550 | 15 | 352 | 4.8 | 9.7 | 0.00 | 0.00 | 0.00 | 70 | 1017.9 |
| 20260905170043 | 15 | 352 | 3.2 | 14.5 | 0.00 | 0.00 | 0.00 | 72 | 1017.8 |
| 20260905164544 | 15 | 340 | 6.4 | 16.1 | 0.00 | 0.00 | 0.00 | 72 | 1017.8 |
| 20260905163052 | 14 | 352 | 9.7 | 17.7 | 0.00 | 0.00 | 0.00 | 74 | 1017.5 |
| 20260905161542 | 13 | 340 | 6.4 | 17.7 | 0.00 | 0.00 | 0.00 | 76 | 1017.3 |
| 20260905160038 | 13 | 18 | 9.7 | 16.1 | 0.00 | 0.00 | 0.00 | 77 | 1017.3 |
| 20260905154549 | 13 | 352 | 8.0 | 17.7 | 0.00 | 0.00 | 0.00 | 80 | 1017.4 |
| 20260905153038 | 12 | 318 | 3.2 | 12.9 | 0.00 | 0.00 | 0.00 | 80 | 1017.6 |
| 20260905151540 | 12 | 323 | 3.2 | 16.1 | 0.00 | 0.00 | 0.00 | 81 | 1017.5 |
| 20260905150045 | 12 | 348 | 6.4 | 17.7 | 0.00 | 0.00 | 0.00 | 82 | 1017.2 |
| 20260905144540 | 11 | 338 | 6.4 | 12.9 | 0.00 | 0.00 | 0.00 | 84 | 1017.4 |
| 20260905143042 | 11 | 0 | 0.0 | 3.2 | 0.00 | 0.00 | 0.00 | 84 | 1017.8 |
| 20260905141541 | 11 | 0 | 1.6 | 4.8 | 0.00 | 0.00 | 0.00 | 84 | 1017.6 |
| 20260905140038 | 11 | 0 | 1.6 | 6.4 | 0.00 | 0.00 | 0.00 | 82 | 1017.5 |
| 20260905134543 | 11 | 337 | 4.8 | 12.9 | 0.00 | 0.00 | 0.00 | 81 | 1017.1 |
| 20260905133038 | 11 | 333 | 6.4 | 12.9 | 0.00 | 0.00 | 0.00 | 83 | 1016.6 |
| 20260905131540 | 11 | 331 | 4.8 | 8.0 | 0.00 | 0.00 | 0.00 | 84 | 1016.6 |
| 20260905130040 | 11 | 331 | 3.2 | 6.4 | 0.00 | 0.00 | 0.00 | 83 | 1016.5 |
| 20260905124537 | 11 | 331 | 4.8 | 9.7 | 0.00 | 0.00 | 0.00 | 84 | 1016.4 |
| 20260905123043 | 11 | 331 | 1.6 | 6.4 | 0.00 | 0.00 | 0.00 | 83 | 1016.5 |
| 20260905121539 | 11 | 331 | 4.8 | 8.0 | 0.00 | 0.00 | 0.00 | 82 | 1016.3 |
| 20260905120050 | 11 | 331 | 4.8 | 8.0 | 0.00 | 0.00 | 0.00 | 82 | 1016.2 |
| 20260905114538 | 12 | 331 | 4.8 | 8.0 | 0.00 | 0.00 | 0.00 | 81 | 1016.2 |
| 20260905113037 | 12 | 331 | 4.8 | 9.7 | 0.00 | 0.00 | 0.00 | 80 | 1016.2 |
| 20260905111545 | 12 | 331 | 4.8 | 8.0 | 0.00 | 0.00 | 0.00 | 80 | 1016.0 |
| 20260905110108 | 12 | 331 | 3.2 | 8.0 | 0.00 | 0.00 | 0.00 | 79 | 1016.0 |
| 20260905104551 | 12 | 331 | 1.6 | 8.0 | 0.00 | 0.00 | 0.00 | 77 | 1016.0 |
| 20260905103039 | 12 | 328 | 6.4 | 14.5 | 0.00 | 0.00 | 0.00 | 78 | 1015.8 |
| 20260905101538 | 12 | 327 | 3.2 | 6.4 | 0.00 | 0.00 | 0.00 | 79 | 1015.7 |
| 20260905100043 | 12 | 327 | 4.8 | 12.9 | 0.00 | 0.00 | 0.00 | 79 | 1015.7 |
| 20260905094640 | 12 | 322 | 6.4 | 14.5 | 0.00 | 0.00 | 0.00 | 80 | 1015.7 |
| 20260905093037 | 12 | 313 | 3.2 | 8.0 | 0.00 | 0.00 | 0.00 | 80 | 1015.8 |
| 20260905091539 | 12 | 313 | 3.2 | 8.0 | 0.00 | 0.00 | 0.00 | 79 | 1015.7 |
| 20260905090041 | 12 | 313 | 1.6 | 6.4 | 0.00 | 0.00 | 0.00 | 76 | 1015.7 |
| 20260905084553 | 13 | 313 | 4.8 | 12.9 | 0.00 | 0.00 | 0.00 | 75 | 1015.5 |
| 20260905083035 | 12 | 311 | 4.8 | 12.9 | 0.00 | 0.00 | 0.00 | 76 | 1015.3 |
| 20260905081542 | 13 | 311 | 8.0 | 16.1 | 0.00 | 0.00 | 0.00 | 75 | 1015.1 |
| 20260905080035 | 13 | 316 | 9.7 | 14.5 | 0.00 | 0.00 | 0.00 | 74 | 1015.0 |
| 20260905074539 | 13 | 314 | 4.8 | 12.9 | 0.00 | 0.00 | 0.00 | 72 | 1015.1 |
| 20260905073041 | 13 | 312 | 6.4 | 12.9 | 0.00 | 0.00 | 0.00 | 72 | 1015.0 |
| 20260905071547 | 13 | 310 | 8.0 | 16.1 | 0.00 | 0.00 | 0.00 | 72 | 1014.9 |
| 20260905070037 | 13 | 313 | 8.0 | 14.5 | 0.00 | 0.00 | 0.00 | 72 | 1014.8 |
| 20260905064539 | 13 | 320 | 8.0 | 16.1 | 0.00 | 0.00 | 0.00 | 70 | 1014.6 |
| 20260905063041 | 13 | 317 | 11.3 | 17.7 | 0.00 | 0.00 | 0.00 | 69 | 1014.6 |
| 20260905061554 | 13 | 315 | 9.7 | 17.7 | 0.00 | 0.00 | 0.00 | 70 | 1014.5 |
| 20260905060058 | 13 | 319 | 11.3 | 17.7 | 0.00 | 0.00 | 0.00 | 70 | 1014.5 |
| 20260905054552 | 13 | 124 | 6.4 | 12.9 | 0.00 | 0.00 | 0.00 | 67 | 1014.2 |
| 20260905053037 | 13 | 135 | 3.2 | 8.0 | 0.00 | 0.00 | 0.00 | 67 | 1014.3 |
| 20260905051539 | 13 | 135 | 4.8 | 11.3 | 0.00 | 0.00 | 0.00 | 68 | 1014.2 |
| 20260905050035 | 13 | 135 | 3.2 | 6.4 | 0.00 | 0.00 | 0.00 | 67 | 1014.2 |
| 20260905044543 | 14 | 135 | 3.2 | 8.0 | 0.00 | 0.00 | 0.00 | 66 | 1014.3 |
| 20260905043041 | 15 | 135 | 3.2 | 6.4 | 0.00 | 0.00 | 0.00 | 66 | 1014.2 |
| 20260905041539 | 15 | 135 | 3.2 | 6.4 | 0.00 | 0.00 | 0.00 | 66 | 1014.3 |
| 20260905040046 | 15 | 135 | 3.2 | 6.4 | 0.00 | 0.00 | 0.00 | 66 | 1014.2 |
| 20260905034538 | 16 | 135 | 1.6 | 6.4 | 0.00 | 0.00 | 0.00 | 65 | 1014.0 |
| 20260905033051 | 16 | 135 | 1.6 | 4.8 | 0.00 | 0.00 | 0.00 | 64 | 1014.1 |
| 20260905031545 | 16 | 135 | 1.6 | 4.8 | 0.00 | 0.00 | 0.00 | 65 | 1013.8 |
| 20260905030040 | 17 | 135 | 1.6 | 4.8 | 0.00 | 0.00 | 0.00 | 64 | 1013.7 |
| 20260905024557 | 18 | 0 | 0.0 | 4.8 | 0.00 | 0.00 | 0.00 | 62 | 1013.6 |
| 20260905023042 | 19 | 0 | 1.6 | 4.8 | 0.00 | 0.00 | 0.00 | 58 | 1013.6 |
| 20260905021539 | 21 | 0 | 0.0 | 0.0 | 0.00 | 0.00 | 0.00 | 50 | 1013.6 |
| 20260905020040 | 21 | 0 | 0.0 | 0.0 | 0.00 | 0.00 | 0.00 | 48 | 1013.7 |
| 20260905014542 | 21 | 0 | 0.0 | 0.0 | 0.00 | 0.00 | 0.00 | 50 | 1013.5 |
| 20260905013102 | 22 | 0 | 0.0 | 0.0 | 0.00 | 0.00 | 0.00 | 45 | 1013.4 |
| 20260905011539 | 22 | 0 | 0.0 | 0.0 | 0.00 | 0.00 | 0.00 | 39 | 1013.3 |
| 20260905010038 | 22 | 0 | 0.0 | 0.0 | 0.00 | 0.00 | 0.00 | 37 | 1013.2 |
| 20260905004540 | 22 | 0 | 0.0 | 4.8 | 0.00 | 0.00 | 0.00 | 39 | 1013.1 |
| 20260905003042 | 21 | 0 | 0.0 | 6.4 | 0.00 | 0.00 | 0.00 | 45 | 1013.2 |
| 20260905001555 | 21 | 135 | 3.2 | 14.5 | 0.00 | 0.00 | 0.00 | 45 | 1013.2 |
| 20260905000037 | 22 | 135 | 9.7 | 14.5 | 0.00 | 0.00 | 0.00 | 42 | 1013.2 |
| 20260904234542 | 22 | 144 | 3.2 | 11.3 | 0.00 | 0.00 | 0.00 | 40 | 1013.1 |
| 20260904233038 | 22 | 144 | 4.8 | 14.5 | 0.00 | 0.00 | 0.00 | 40 | 1013.2 |
| 20260904231538 | 22 | 146 | 6.4 | 14.5 | 0.00 | 0.00 | 0.00 | 41 | 1013.2 |
| 20260904230056 | 22 | 155 | 3.2 | 9.7 | 0.00 | 0.00 | 0.00 | 44 | 1013.2 |
| 20260904224545 | 22 | 155 | 3.2 | 9.7 | 0.00 | 0.00 | 0.00 | 45 | 1013.3 |
| 20260904223102 | 21 | 155 | 4.8 | 12.9 | 0.00 | 0.00 | 0.00 | 45 | 1013.4 |
| 20260904221538 | 21 | 156 | 4.8 | 14.5 | 0.00 | 0.00 | 0.00 | 45 | 1013.5 |
| 20260904220044 | 21 | 166 | 6.4 | 11.3 | 0.00 | 0.00 | 0.00 | 46 | 1013.6 |
| 20260904214545 | 21 | 166 | 6.4 | 11.3 | 0.00 | 0.00 | 0.00 | 45 | 1013.8 |
| 20260904213044 | 21 | 166 | 3.2 | 11.3 | 0.00 | 0.00 | 0.00 | 48 | 1013.6 |
| 20260904211539 | 21 | 166 | 6.4 | 11.3 | 0.00 | 0.00 | 0.00 | 47 | 1013.8 |
| 20260904210043 | 20 | 166 | 4.8 | 14.5 | 0.00 | 0.00 | 0.00 | 49 | 1013.7 |
| 20260904204538 | 20 | 169 | 6.4 | 12.9 | 0.00 | 0.00 | 0.00 | 51 | 1013.7 |
| 20260904203037 | 20 | 175 | 6.4 | 11.3 | 0.00 | 0.00 | 0.00 | 52 | 1013.6 |
| 20260904201542 | 20 | 0 | 0.0 | 12.9 | 0.00 | 0.00 | 0.00 | 55 | 1013.8 |
| 20260904200054 | 19 | 192 | 1.6 | 9.7 | 0.00 | 0.00 | 0.00 | 55 | 1013.7 |
| 20260904194544 | 19 | 0 | 1.6 | 9.7 | 0.00 | 0.00 | 0.00 | 55 | 1013.9 |
| 20260904193041 | 18 | 202 | 3.2 | 11.3 | 0.00 | 0.00 | 0.00 | 59 | 1013.9 |
| 20260904191545 | 18 | 163 | 1.6 | 12.9 | 0.00 | 0.00 | 0.00 | 61 | 1014.1 |